[[{"header":{"parameterUnit":"m.s-1","parameterCategory":1,"la1":30.2991,"la2":30.254,"lo1":-89.0895,"lo2":-89.0444,"dy":0.0017,"dx":0.0017,"nx":28,"ny":28,"refTime":"2024-03-09T09:00:00:Z","depth":0,"parameterNumber":2,"parameterNumberName":"U-component_of_WINDS"},"data":[0,0,0,0,0,0,0,0,0,0,0,0,0,0,0,0,0,0,0,0,0,0,0,0,0,0,0,0,0,0,0,0,0,0,0,0,0,0,0,0,0,0,0,0,0,0,0,0,0,0,0,0,0,0,0,0,0,0,2.096,2.096,0,2.0983,2.0983,2.0983,2.0955,2.0954,2.0953,2.0952,2.0975,2.0977,2.0978,0,0,0,0,0,0,0,0,0,0,0,0,0,2.0891,2.0892,2.096,2.096,2.096,2.0983,2.0983,2.0983,2.0955,2.0954,2.0953,2.0951,2.0975,2.0977,2.0979,0,0,0,0,0,0,0,0,0,0,0,0,0,2.0918,2.0893,2.096,2.0949,2.0948,2.0983,2.0983,2.0984,2.0955,2.0954,2.0952,2.0951,2.0974,2.0976,2.0979,2.1025,0,0,2.0986,2.0987,0,0,0,0,0,0,0,0,2.0917,2.0921,2.095,2.095,2.0949,2.0964,2.0967,2.0997,2.0956,2.0953,2.0952,2.095,2.0973,2.0975,2.0983,2.1026,2.1027,2.0986,2.0988,2.0989,2.099,0,0,0,0,0,0,0,2.0915,2.092,2.0969,2.0951,2.095,2.0943,2.0945,2.0973,2.0971,2.0953,2.0951,2.0954,2.0972,2.0981,2.0983,2.1027,2.0986,2.0988,2.099,2.0991,2.1109,2.111,0,0,0,0,0,0,2.0914,2.0918,2.0968,2.097,2.0929,2.0945,2.0948,2.0961,2.0971,2.0971,2.0955,2.0953,2.0978,2.0981,2.0984,2.1039,2.0989,2.0991,2.0992,2.1107,2.1109,2.1111,0,0,0,0,0,0,2.0913,2.0919,2.0967,2.0943,2.0949,2.0948,2.0963,2.0962,2.0971,2.0973,2.0972,2.0964,2.0976,2.0981,2.1015,2.1039,2.0992,2.0994,2.1105,2.1108,2.111,2.1148,0,0,0,0,0,0,2.0911,2.0919,2.0936,2.0944,2.095,2.0998,2.0965,2.0964,2.0975,2.0972,2.0981,2.0981,2.0976,2.1012,2.1017,2.1041,2.0996,2.1103,2.1106,2.1109,2.1144,2.1151,2.1157,0,0,0,0,0,2.0909,2.0946,2.0937,2.0943,2.0972,2.0999,2.1003,2.0996,2.0977,2.0995,2.0996,2.0981,2.1035,2.1015,2.1022,2.1047,2.1101,2.1105,2.1109,2.1142,2.115,2.1157,0,0,0,0,0,0,2.0941,2.0947,2.0937,2.0978,2.0989,2.0995,2.1016,2.1005,2.1021,2.1017,2.1007,2.1009,2.1046,2.105,2.1027,2.1092,2.1065,2.1071,2.1088,2.1096,2.1102,2.1101,2.0998,0,0,0,0,0,2.0953,2.0974,2.0978,2.1014,2.102,2.1017,2.1029,2.1022,2.1033,2.1037,2.104,2.1051,2.107,2.1083,2.1101,2.1145,2.1146,2.1165,2.1172,2.1177,2.1182,2.1205,2.1213,2.1124,2.1124,2.1124,0,0,2.0977,2.0983,2.0998,2.1021,2.1028,2.105,2.1021,2.1046,2.1063,2.104,2.1073,2.1076,2.1087,2.1126,2.1143,2.113,2.1207,2.1182,2.1186,2.1188,2.1209,2.1218,2.1225,2.1126,2.1126,2.1125,0,0,2.1034,2.1041,2.1071,2.1079,2.109,2.1089,2.1096,2.1104,2.1105,2.1138,2.1121,2.1141,2.1174,2.1183,2.1192,2.1251,2.1238,2.1257,2.1291,2.1314,2.1321,2.1327,2.1348,2.1356,2.1262,2.1262,2.1262,0,2.1063,2.1096,2.1088,2.1114,2.1125,2.1106,2.1137,2.1145,2.1161,2.1169,2.1154,2.1196,2.1202,2.1243,2.1257,2.1265,2.1273,2.1256,2.132,2.1326,2.1332,2.1352,2.136,2.1264,2.1264,2.1264,2.1264,0,2.1132,2.1155,2.1178,2.1195,2.1208,2.1237,2.1232,2.1247,2.1239,2.1239,2.1272,2.1279,2.1297,2.1307,2.1299,2.1346,2.1338,2.1322,2.1295,2.1343,2.1362,2.1369,2.1268,2.1267,2.1266,2.1266,0,0,2.1209,2.1221,2.123,2.1237,2.1248,2.1266,2.1293,2.1312,2.1324,2.1336,2.1359,2.1388,2.1373,2.1383,2.1377,2.1397,2.1443,2.1378,2.1378,2.139,2.1495,2.1507,2.1516,2.1435,2.1436,2.1437,2.1494,0,2.1266,2.1313,2.1307,2.1352,2.1374,2.1356,2.138,2.1389,2.139,2.1408,2.1408,2.1429,2.1408,2.1414,2.1432,2.1434,2.1464,2.1429,2.1455,2.1456,2.1453,2.1526,2.1538,2.1592,2.1501,2.1503,2.1503,0,2.1338,2.1353,2.1401,2.1409,2.1417,2.1439,2.1455,2.1473,2.1483,2.1482,2.1493,2.1483,2.151,2.1483,2.152,2.1497,2.1507,2.1509,2.1511,2.1513,2.1483,2.153,2.1609,2.1617,2.1515,2.1514,2.1513,0,2.1389,2.1421,2.1454,2.1461,2.1471,2.1487,2.1491,2.15,2.1512,2.1526,2.1533,2.1551,2.156,2.1574,2.1568,2.1549,2.1607,2.1579,2.1606,2.1606,2.1619,2.1618,2.1701,2.1626,2.1626,2.1626,2.1625,0,2.1453,2.1483,2.1477,2.1497,2.153,2.1522,2.1555,2.1558,2.1566,2.1586,2.1572,2.1591,2.1583,2.1602,2.1598,2.1629,2.1633,2.1633,2.1632,2.1634,2.1634,2.1641,2.1637,2.1628,2.1627,2.1627,2.1627,0,2.1516,2.1513,2.1548,2.1555,2.1557,2.1581,2.1587,2.1606,2.1605,2.1631,2.1636,2.1635,2.1656,2.1653,2.1676,2.1673,2.1712,2.1706,2.1709,2.1708,2.1735,2.1732,2.1824,2.1836,2.1754,2.1754,2.1755,0,2.1556,2.1579,2.1588,2.1601,2.1607,2.1628,2.1639,2.1632,2.1645,2.1659,2.1676,2.1696,2.1711,2.1746,2.1747,2.1765,2.1759,2.179,2.1762,2.1764,2.1759,2.1758,2.176,2.1796,2.1797,2.1798,2.1798,0,2.1629,2.1627,2.1644,2.1662,2.1676,2.169,2.1702,2.1713,2.1707,2.1722,2.1743,2.1756,2.1779,2.1799,2.1816,2.182,2.1808,2.1807,2.1814,2.1817,2.1818,2.1818,2.1724,2.1805,2.1804,2.1804,2.1803,2.1803,2.1682,2.1701,2.1711,2.1731,2.1739,2.1751,2.1769,2.177,2.1788,2.1807,2.1802,2.1827,2.1836,2.1857,2.1864,2.1882,2.1871,2.1881,2.1884,2.1887,2.189,2.1815,2.1885,2.1885,2.1885,2.1885,2.1885,0,2.1753,2.1759,2.1777,2.1795,2.1811,2.1798,2.1811,2.1825,2.1846,2.1856,2.1872,2.1897,2.1916,2.1919,2.1937,2.1951,2.1946,2.1956,2.1955,2.1956,2.1899,2.1891,2.196,2.196,2.196,2.196,2.196,2.196,2.1792,2.1824,2.1823,2.1859,2.1864,2.1888,2.1897,2.1907,2.1915,2.1943,2.1959,2.1961,2.1968,2.1987,2.2004,2.2004,2.2011,2.2023,2.2022,2.1968,2.1961,2.1953,2.1946,2.2025,2.2025,2.2077,2.2078,2.2078]},{"header":{"parameterUnit":"m.s-1","parameterCategory":1,"la1":30.2991,"la2":30.254,"lo1":-89.0895,"lo2":-89.0444,"dy":0.0017,"dx":0.0017,"nx":28,"ny":28,"refTime":"2024-03-09T09:00:00:Z","depth":0,"parameterNumber":3,"parameterNumberName":"V-component_of_WINDS"},"data":[0,0,0,0,0,0,0,0,0,0,0,0,0,0,0,0,0,0,0,0,0,0,0,0,0,0,0,0,0,0,0,0,0,0,0,0,0,0,0,0,0,0,0,0,0,0,0,0,0,0,0,0,0,0,0,0,0,0,3.6681,3.6681,0,3.6733,3.6734,3.6734,3.6687,3.6686,3.6684,3.6682,3.6735,3.6738,3.6741,0,0,0,0,0,0,0,0,0,0,0,0,0,3.6539,3.6542,3.6681,3.6681,3.6682,3.6733,3.6734,3.6734,3.6688,3.6685,3.6683,3.6681,3.6734,3.6738,3.6742,0,0,0,0,0,0,0,0,0,0,0,0,0,3.6597,3.6543,3.6681,3.6665,3.6664,3.6733,3.6734,3.6735,3.6688,3.6685,3.6683,3.668,3.6733,3.6737,3.6742,3.6829,0,0,3.6757,3.6759,0,0,0,0,0,0,0,0,3.6594,3.6602,3.6667,3.6666,3.6665,3.6701,3.6703,3.6766,3.6689,3.6679,3.6682,3.6678,3.6726,3.6731,3.6747,3.6831,3.6834,3.6757,3.676,3.6762,3.6763,0,0,0,0,0,0,0,3.659,3.66,3.6701,3.6668,3.6667,3.6655,3.666,3.6715,3.6718,3.668,3.6676,3.6683,3.6725,3.6743,3.6748,3.6834,3.6757,3.6761,3.6764,3.6766,3.6992,3.6995,0,0,0,0,0,0,3.6588,3.6597,3.67,3.6703,3.6622,3.666,3.6665,3.6692,3.6717,3.6718,3.6686,3.6681,3.6736,3.6742,3.675,3.6853,3.6762,3.6766,3.6769,3.6989,3.6993,3.6997,0,0,0,0,0,0,3.6585,3.6597,3.6698,3.6649,3.6661,3.6665,3.6696,3.6695,3.6712,3.6722,3.6722,3.6703,3.6734,3.6743,3.681,3.6855,3.6769,3.6773,3.6986,3.6991,3.6995,3.7062,0,0,0,0,0,0,3.6581,3.6597,3.663,3.665,3.6664,3.6757,3.6699,3.6698,3.6721,3.6715,3.6738,3.6739,3.6732,3.6803,3.6814,3.686,3.6777,3.6982,3.6988,3.6993,3.7055,3.7068,3.7079,0,0,0,0,0,3.6576,3.6646,3.6632,3.6645,3.6706,3.676,3.6767,3.6758,3.6725,3.6758,3.6764,3.6739,3.6848,3.681,3.6823,3.687,3.6979,3.6986,3.6993,3.705,3.7065,3.7078,0,0,0,0,0,0,3.6631,3.6649,3.6633,3.6712,3.6735,3.6752,3.6794,3.6775,3.6807,3.6801,3.6787,3.6793,3.6863,3.6873,3.6831,3.6955,3.6908,3.6918,3.6947,3.6961,3.6973,3.697,3.6781,0,0,0,0,0,3.6653,3.6696,3.6708,3.6777,3.6789,3.679,3.6813,3.6804,3.6827,3.6836,3.6847,3.687,3.6909,3.6936,3.6972,3.7056,3.7061,3.7095,3.7106,3.7116,3.7125,3.7171,3.7186,3.702,3.702,3.702,0,0,3.6697,3.6712,3.674,3.6788,3.6805,3.685,3.6798,3.6847,3.688,3.6843,3.6907,3.6916,3.6941,3.7017,3.705,3.7027,3.7172,3.7125,3.7133,3.7137,3.7179,3.7195,3.7209,3.7025,3.7024,3.7023,0,0,3.6802,3.6817,3.6876,3.6894,3.6919,3.6919,3.6933,3.6953,3.6958,3.7022,3.6995,3.7034,3.7102,3.7121,3.7139,3.725,3.7229,3.7263,3.7324,3.7369,3.7382,3.7393,3.7434,3.7448,3.7271,3.7272,3.7272,0,3.6854,3.692,3.6909,3.696,3.6982,3.6951,3.701,3.7028,3.7064,3.708,3.7053,3.7138,3.7153,3.7233,3.726,3.7275,3.7291,3.7261,3.7381,3.7392,3.7403,3.7441,3.7457,3.7276,3.7275,3.7275,3.7274,0,3.6984,3.703,3.7074,3.7111,3.7138,3.7193,3.7189,3.7218,3.7206,3.7209,3.7274,3.729,3.733,3.7348,3.7337,3.7426,3.7411,3.7383,3.7335,3.7423,3.7459,3.7474,3.7281,3.728,3.7279,3.7278,0,0,3.7125,3.7154,3.7171,3.7187,3.7213,3.7249,3.7302,3.7341,3.7366,3.7392,3.7437,3.7495,3.7469,3.749,3.7481,3.752,3.7608,3.7486,3.7487,3.7509,3.7708,3.7731,3.7748,3.7592,3.7595,3.7597,3.7707,0,3.7231,3.7325,3.7316,3.7405,3.7448,3.7418,3.7465,3.7486,3.749,3.7526,3.753,3.7572,3.7534,3.7546,3.7583,3.7589,3.7648,3.7581,3.7635,3.7637,3.7631,3.7766,3.779,3.7893,3.772,3.7723,3.7724,0,3.7368,3.7399,3.7493,3.7513,3.753,3.7572,3.7608,3.7643,3.7666,3.7666,3.7689,3.7673,3.7727,3.7677,3.7751,3.7706,3.7727,3.7733,3.7737,3.7743,3.7687,3.7777,3.7925,3.7941,3.7746,3.7745,3.7743,0,3.7463,3.7528,3.7593,3.7608,3.7632,3.7662,3.7674,3.7694,3.7718,3.7748,3.7764,3.78,3.782,3.7848,3.7842,3.7806,3.7918,3.7868,3.792,3.7921,3.7947,3.7945,3.8101,3.7958,3.7958,3.7957,3.7957,0,3.7583,3.7642,3.7636,3.7676,3.7741,3.7729,3.7794,3.7801,3.7819,3.786,3.7836,3.7875,3.7864,3.7902,3.7897,3.796,3.7969,3.797,3.7969,3.7974,3.7974,3.7988,3.7982,3.7962,3.7961,3.796,3.7959,0,3.7701,3.7699,3.7768,3.7785,3.7791,3.7838,3.7853,3.7891,3.7892,3.7944,3.7955,3.7957,3.8001,3.7998,3.8046,3.8043,3.8121,3.811,3.8114,3.8112,3.8166,3.8161,3.8338,3.8361,3.8201,3.8203,3.8204,0,3.7779,3.7823,3.7845,3.7871,3.7885,3.7926,3.7951,3.7941,3.7967,3.7997,3.8031,3.8072,3.8105,3.8177,3.8183,3.822,3.8211,3.827,3.8216,3.822,3.8213,3.8211,3.8216,3.8281,3.8283,3.8284,3.8285,0,3.7917,3.7914,3.795,3.7987,3.8017,3.8045,3.807,3.8093,3.8085,3.8116,3.8161,3.8186,3.8236,3.8278,3.8314,3.8325,3.8305,3.8302,3.8316,3.8323,3.8323,3.8325,3.8144,3.8298,3.8297,3.8296,3.8295,3.8295,3.8018,3.8056,3.8078,3.8119,3.8138,3.8162,3.8198,3.8204,3.8241,3.8282,3.8273,3.8324,3.8345,3.8391,3.8406,3.8445,3.8424,3.8444,3.845,3.8456,3.8463,3.8316,3.8451,3.8451,3.8451,3.845,3.845,0,3.8155,3.8168,3.8206,3.8243,3.8276,3.8253,3.828,3.8309,3.8354,3.8376,3.8409,3.846,3.85,3.8509,3.8548,3.8578,3.857,3.8589,3.8587,3.859,3.8479,3.8463,3.8595,3.8595,3.8595,3.8595,3.8595,3.8595,3.8231,3.8296,3.8295,3.8368,3.838,3.8429,3.8447,3.8469,3.8487,3.8546,3.8579,3.8585,3.8602,3.8641,3.8677,3.8679,3.8695,3.8718,3.8716,3.8612,3.8598,3.8584,3.8569,3.8721,3.8722,3.8825,3.8826,3.8826]}]]